Flag for Cayman Islands Weather past 2 weeks in George Town, Cayman Islands

Now
86 °F

Warm.


Feels Like: 97 °F
Forecast: 83 / 86 °F
Wind: 9 mph from East

Location: Cayo Largo Del Sur

Current Time: Jul 29, 2015 at 5:27:46 AM

Latest Report: Jul 29, 2015 at 4:05 AM


Visibility: N/A

Pressure: 29.95 "Hg

Humidity: 75%

Dew point: 77 °F

Location of George TownLocation

Historic Weather in George Town — Graph

°F

George Town temperature yesterday

Maximum temperature yesterday: 91 °F (at 11:52 AM)
Minimum temperature yesterday: 81 °F (at 5:05 AM)
Average temperature yesterday: 87 °F

Past Weeks' High & Low Weather Summary

 TemperatureHumidityPressure
High91 °F (Jul 22, 3:53 PM)84% (Jul 15, 1:05 AM)30.07 "Hg (Jul 15, 1:05 AM)
Low79 °F (Jul 14, 5:51 AM)46% (Jul 28, 11:52 AM)29.92 "Hg (Jul 26, 2:05 AM)
Average85 °F67%30.01 "Hg
* Reported Jul 14 4:05 AM — Jul 29 4:05 AM, George Town, Weather by CustomWeather, © 2015

Note: Actual official high and low records may vary slightly from our data, if they occured in-between our weather recording intervals... More about our weather records

Advertising

George Town weather history for previous 24 hours

 ConditionsComfort  
Time TempWeatherWind HumidityBarometerVisibility
4:05 AM
Wed, Jul 29
86 °FWarm.9 mph75%29.95 "HgN/A
3:05 AM86 °FWarm.10 mph79%29.95 "HgN/A
2:05 AM86 °FWarm.12 mph75%29.95 "HgN/A
1:05 AM86 °FWarm.10 mph70%29.98 "HgN/A
12:05 AM88 °FWarm.13 mph66%30.01 "HgN/A
11:05 PM
Tue, Jul 28
88 °FWarm.13 mph66%30.01 "HgN/A
10:05 PM88 °FWarm.10 mph62%30.01 "HgN/A
9:05 PM88 °FWarm.8 mph59%29.98 "HgN/A
8:05 PM88 °FWarm.6 mph59%29.98 "HgN/A
7:05 PM88 °FWarm.7 mph55%29.98 "HgN/A
5:51 PM90 °FPassing clouds.9 mph59%29.98 "HgN/A
4:56 PM90 °FPassing clouds.7 mph59%29.98 "HgN/A
3:51 PM90 °FPassing clouds.6 mph55%29.95 "HgN/A
2:52 PM90 °FPassing clouds.6 mph55%29.98 "HgN/A
1:51 PM90 °FPassing clouds.6 mph55%30.01 "HgN/A
12:50 PM91 °FPassing clouds.7 mph46%30.01 "HgN/A
11:52 AM91 °FPassing clouds.6 mph46%30.01 "HgN/A
10:51 AM90 °FPassing clouds.7 mph55%30.04 "HgN/A
9:52 AM90 °FPassing clouds.6 mph52%30.01 "HgN/A
8:53 AM90 °FPassing clouds.6 mph55%30.01 "HgN/A
7:51 AM86 °FPassing clouds.6 mph66%30.01 "Hg6 mi
6:51 AM82 °FPassing clouds.3 mph79%29.98 "Hg6 mi
5:52 AM81 °FClear.2 mph79%29.98 "Hg6 mi
5:05 AM81 °FWarm.3 mph79%29.95 "HgN/A
Weather by CustomWeather, © 2015

See weather overviewHow to use our weather pages